Regional Weather Roundup
Issued by NWS

Home | Current Version | Previous Version | Graphics & Text | Print | Product List | Glossary On
Versions: 1 2 3 4 5 6 7 8 9 10 11 12 13 14 15 16 17 18 19 20 21 22 23 24 25 26 27 28 29 30 31 32 33 34 35 36 37 38 39 40 41 42 43 44 45 46 47 48 49 50
000
ASUS43 KLOT 311708
RWRIL

ILLINOIS REGIONAL WEATHER ROUNDUP
NATIONAL WEATHER SERVICE CHICAGO/ROMEOVILLE IL
1200 PM CDT MON AUG 31 2015

NOTE: "FAIR" INDICATES FEW OR NO CLOUDS BELOW 12,000 FEET WITH NO
SIGNIFICANT WEATHER AND/OR OBSTRUCTIONS TO VISIBILITY.

* THESE STATIONS ARE NOT UNDER NWS QUALITY CONTROL. THEY ALSO MAY NOT
  REPORT WEATHER SUCH AS PRECIPITATION OR FOG.

ILZ001-002-007-009-015-016-024-311800-
NORTHWEST ILLINOIS

CITY           SKY/WX    TMP DP  RH WIND       PRES   REMARKS
MOLINE         SUNNY     84  71  65 VRB7      30.04F HX  89
STERLING*        N/A    N/A N/A N/A MISG        N/A
SAVANNA*       SUNNY     80  70  72 W6        30.05S HX  83
$$

ILZ003-004-008-010-011-017-018-311800-
NORTH CENTRAL ILLINOIS

CITY           SKY/WX    TMP DP  RH WIND       PRES   REMARKS
ROCKFORD       MOSUNNY   81  70  69 S8        30.08F HX  84
FREEPORT*      SUNNY     79  71  75 S6        30.09S HX  82
ROCHELLE*      SUNNY     80  69  70 CALM      30.08S HX  83
DE KALB*       SUNNY     79  70  74 CALM      30.09S HX  82
PERU*          SUNNY     83  68  60 CALM      30.07F HX  86
$$

ILZ005-006-012>014-019>023-311800-
NORTHEAST ILLINOIS

CITY           SKY/WX    TMP DP  RH WIND       PRES   REMARKS
CHICAGO-OHARE  MOSUNNY   80  67  64 VRB3      30.08S HX  82
CHICAGO-MIDWAY MOSUNNY   84  68  58 CALM      30.07F HX  87
AURORA         MOSUNNY   81  70  69 CALM      30.09S HX  84
LANSING*       SUNNY     80  69  70 CALM      30.09F HX  82
JOLIET*        SUNNY     84  71  65 CALM      30.08F HX  88
WAUKEGAN       PTSUNNY   78  67  68 VRB3      30.07F HX  80
DUPAGE AIRPORT MOSUNNY   80  68  66 CALM      30.07F HX  83
KANKAKEE*      MOSUNNY   83  71  69 E3        30.09S HX  87
WHEELING       MOSUNNY   80  67  64 CALM      30.09F HX  82
MORRIS*        SUNNY     81  72  74 SE3       30.06F HX  85
ROMEOVILLE*    MOSUNNY   81  67  63 CALM      30.08F HX  84
NORTHERLY ISL    N/A     73  67  81 E5          N/A
$$

LMZ740>746-311800-
SOUTHERN LAKE MICHIGAN

STATION/POSITION SKY/WX   TEMP    WIND        PRES    VSBY  WAVE
                          AIR SEA DIR/SP/G                  HT/PER
                          (F)     (DEG/KT/KT) (MB)    (MI)  (FT/S)
SOUTHERN BUOY              67 71  220/  2/  4 1018.6F         0
WILMETTE HARBOR            64 61  230/  4/  4   N/A           0
HARRISON CRIB              69      90/  7/  8   N/A
BURNHAM HARBOR             72      50/  3/  4   N/A
CALUMET HARBOR             74      50/  6/  7   N/A
BURNS HARBOR               73     350/  2/  3 1019.6S
MICHIGAN CITY              74     260/  3/  3   N/A
MICHIGAN CITY 6N           73 72  270/  2/  2   N/A           0
ST. JOSEPH                 71 72  250/  2/  2   N/A           0
$$

ILZ025>027-034>036-040-047-049-050-058-095>099-311800-
WEST-CENTRAL ILLINOIS

CITY           SKY/WX    TMP DP  RH WIND       PRES   REMARKS
QUINCY         SUNNY     87  70  56 VRB6      30.04F HX  92
GALESBURG*     SUNNY     83  72  69 SE5       30.06S HX  89
MACOMB*        SUNNY     86  71  60 SE7       30.07S HX  91
JACKSONVILLE*  SUNNY     88  71  57 SW3       30.06F HX  94
PITTSFIELD*    SUNNY     87  70  55 S6        30.07S HX  92
$$

ILZ028>032-037-038-041>044-048-051>054-059>061-311800-
CENTRAL ILLINOIS

CITY           SKY/WX    TMP DP  RH WIND       PRES   REMARKS
PONTIAC        PTSUNNY   83  73  69 SE6       30.09S HX  89
BLOOMINGTON    PTSUNNY   84  74  72 S8        30.10S HX  91
DECATUR        PTSUNNY   83  72  69 S10       30.09F HX  88
PEORIA         MOSUNNY   86  72  62 S6        30.06F HX  92
LACON*         SUNNY     82  71  68 SE5       30.05F HX  86
LINCOLN*       MOSUNNY   88  71  57 S5        30.06F HX  93
SPRINGFIELD    MOSUNNY   85  72  65 VRB6      30.07S HX  91
TAYLORVILLE    SUNNY     81  72  74 S3        30.08F HX  84
$$

ILZ033-039-045-046-055>057-062-063-311800-
EAST-CENTRAL ILLINOIS

CITY           SKY/WX    TMP DP  RH WIND       PRES   REMARKS
CHAMPAIGN      MOSUNNY   82  70  66 S9        30.11S HX  86
RANTOUL*       CLOUDY    83  74  74 S10       30.11S HX  89
MATTOON        PTSUNNY   74  68  81 S12       30.11F
PARIS*         PTSUNNY   81  71  69 SW9       30.12S HX  85
$$

ILZ079-100>102-311800-
SOUTHWEST ILLINOIS

CITY           SKY/WX    TMP DP  RH WIND       PRES   REMARKS
BELLEVILLE     MOSUNNY   83  74  74 VRB2      30.07F HX  90
CAHOKIA*       MOSUNNY   86  70  58 W5        30.07F HX  90
SPARTA*        MOSUNNY   80  72  75 S6        30.11S HX  84
$$

ILZ064>066-069>071-074>076-080>082-084>086-088>090-092>094-311800-
SOUTH-CENTRAL ILLINOIS

CITY           SKY/WX    TMP DP  RH WIND       PRES   REMARKS
CARBONDALE     MOSUNNY   82  70  66 S5        30.11F HX  86
CAIRO*         SUNNY     80  71  74 S3        30.12F HX  84
EFFINGHAM*     CLOUDY    73  69  88 SE5       30.12F
MARION         SUNNY     82  70  65 S6        30.12F HX  86
MT. VERNON     CLOUDY    82  70  65 SW3       30.13S HX  86
SALEM*         CLOUDY    79  72  79 S5        30.12S HX  81
METROPOLIS*    SUNNY     83  72  70 S3        30.13F HX  88
$$

ILZ067-068-072-073-078-083-087-091-311800-
SOUTHEAST ILLINOIS

CITY           SKY/WX    TMP DP  RH WIND       PRES   REMARKS
LAWRENCEVILLE  PTSUNNY   82  69  64 W8        30.13F HX  85
FLORA*         MOSUNNY   74  69  82 CALM      30.13F
FAIRFIELD*     PTSUNNY   82  70  67 CALM      30.11F HX  85
HARRISBURG*    SUNNY     83  68  60 S6        30.13S HX  86
ROBINSON*      MOSUNNY   81  70  68 SW7       30.13F HX  85
CARMI*         SUNNY     82  69  65 S5        30.13S HX  85
$$

ABBREVIATIONS USED IN REMARKS
   TC - TEMPERATURE IN CELSIUS
  WCI - WIND CHILL INDEX
   HX - HEAT INDEX
  VSB - VISIBILITY
$$




USA.gov is the U.S. government's official web portal to all federal, state and local government web resources and services.